Terug naar catalogus

CZ-4B R/B

ActiefSSO
NORAD 33410·ROCKET BODY·🇨🇳 China

Gelanceerd Oct 25, 2008 vanaf Taiyuan Satellite Launch Center

Loading…

Volgende Passages (komende 24 uur)

TLE

VersSource: Space-Track

Epoch: Sep 14, 2026, 11:00 UTC

1 33410U 08053C   26257.45893888  .00003907  00000-0  15480-3 0  9992
2 33410  97.7706 328.5018 0082037 306.3894  52.9793 15.22977877978216

Volg CZ-4B R/B in realtime met AllMySat

Download on the App Store